[[{"header":{"parameterUnit":"m.s-1","parameterCategory":1,"la1":30.2991,"la2":30.254,"lo1":-89.0895,"lo2":-89.0444,"dy":0.0017,"dx":0.0017,"nx":28,"ny":28,"refTime":"2025-09-12T21:00:00:Z","depth":0,"parameterNumber":2,"parameterNumberName":"U-component_of_WINDS"},"data":[0,0,0,0,0,0,0,0,0,0,0,0,0,0,0,0,0,0,0,0,0,0,0,0,0,0,0,0,0,0,0,0,0,0,0,0,0,0,0,0,0,0,0,0,0,0,0,0,0,0,0,0,0,0,0,0,0,0,-0.6669,-0.6668,0,-0.6589,-0.6588,-0.6588,-0.6532,-0.6532,-0.6531,-0.6531,-0.6449,-0.6447,-0.6446,0,0,0,0,0,0,0,0,0,0,0,0,0,-0.6773,-0.6772,-0.6669,-0.6668,-0.6667,-0.659,-0.6588,-0.6587,-0.6532,-0.6532,-0.6531,-0.6531,-0.645,-0.6448,-0.6446,0,0,0,0,0,0,0,0,0,0,0,0,0,-0.6714,-0.6771,-0.6669,-0.663,-0.6626,-0.659,-0.6588,-0.6587,-0.6532,-0.6532,-0.6531,-0.653,-0.645,-0.6448,-0.6445,-0.6442,0,0,-0.6437,-0.6436,0,0,0,0,0,0,0,0,-0.6718,-0.6711,-0.6637,-0.6632,-0.6628,-0.657,-0.6595,-0.6538,-0.6532,-0.6568,-0.6531,-0.653,-0.649,-0.6484,-0.647,-0.6438,-0.6434,-0.6437,-0.6435,-0.6434,-0.6433,0,0,0,0,0,0,0,-0.6722,-0.6714,-0.6637,-0.6636,-0.663,-0.6617,-0.6608,-0.6584,-0.6533,-0.6565,-0.656,-0.6552,-0.6487,-0.6473,-0.6468,-0.6433,-0.6437,-0.6435,-0.6433,-0.6432,-0.6397,-0.6398,0,0,0,0,0,0,-0.6732,-0.6717,-0.664,-0.6635,-0.6672,-0.6615,-0.6605,-0.6589,-0.6533,-0.6524,-0.6552,-0.6549,-0.6478,-0.6471,-0.6465,-0.6459,-0.6434,-0.6432,-0.643,-0.6396,-0.6397,-0.6398,0,0,0,0,0,0,-0.6735,-0.6726,-0.6643,-0.6675,-0.6663,-0.6614,-0.6597,-0.6588,-0.6574,-0.6524,-0.6515,-0.6547,-0.6477,-0.6469,-0.6449,-0.6456,-0.643,-0.6428,-0.6395,-0.6397,-0.6397,-0.6447,0,0,0,0,0,0,-0.6738,-0.6727,-0.6725,-0.6675,-0.6662,-0.6628,-0.6597,-0.6587,-0.6569,-0.6565,-0.6517,-0.6508,-0.6476,-0.6453,-0.6446,-0.6452,-0.6426,-0.6395,-0.6396,-0.6397,-0.6444,-0.6449,-0.6454,0,0,0,0,0,-0.6742,-0.6741,-0.6725,-0.6716,-0.6658,-0.6628,-0.662,-0.6583,-0.657,-0.6568,-0.6537,-0.651,-0.6456,-0.6451,-0.6443,-0.6448,-0.6394,-0.6396,-0.6397,-0.6442,-0.6448,-0.6454,0,0,0,0,0,0,-0.6791,-0.6734,-0.6715,-0.6698,-0.6669,-0.6619,-0.6615,-0.6591,-0.6564,-0.6561,-0.6516,-0.6505,-0.6491,-0.6467,-0.6463,-0.6443,-0.6422,-0.6422,-0.6459,-0.6465,-0.6469,-0.6476,-0.6424,0,0,0,0,0,-0.68,-0.6781,-0.6731,-0.6721,-0.6708,-0.6664,-0.6649,-0.6624,-0.6591,-0.6578,-0.6545,-0.6515,-0.6491,-0.6476,-0.6451,-0.6441,-0.6431,-0.644,-0.6445,-0.6449,-0.645,-0.6445,-0.6449,-0.6403,-0.6403,-0.6403,0,0,-0.6819,-0.6785,-0.6775,-0.6731,-0.6704,-0.6686,-0.6654,-0.6635,-0.6621,-0.6575,-0.6555,-0.653,-0.6493,-0.6478,-0.647,-0.6458,-0.646,-0.6451,-0.6454,-0.6453,-0.6447,-0.6451,-0.6455,-0.6404,-0.6404,-0.6403,0,0,-0.6843,-0.6815,-0.6804,-0.678,-0.6741,-0.6712,-0.671,-0.6665,-0.6647,-0.6625,-0.6592,-0.6575,-0.6534,-0.651,-0.6493,-0.6511,-0.6486,-0.6504,-0.6529,-0.6525,-0.6528,-0.6531,-0.654,-0.6543,-0.6505,-0.6505,-0.6505,0,-0.6871,-0.6841,-0.6802,-0.6786,-0.6768,-0.6727,-0.6717,-0.6695,-0.665,-0.664,-0.6627,-0.6577,-0.6549,-0.653,-0.6535,-0.6521,-0.6518,-0.651,-0.6531,-0.6534,-0.6536,-0.6544,-0.6547,-0.6508,-0.6507,-0.6507,-0.6507,0,-0.6878,-0.6858,-0.6855,-0.6814,-0.6796,-0.6783,-0.6743,-0.6729,-0.6706,-0.6679,-0.666,-0.6625,-0.6594,-0.6587,-0.6563,-0.6565,-0.6559,-0.6539,-0.6517,-0.6544,-0.655,-0.6553,-0.6511,-0.651,-0.651,-0.6509,0,0,-0.693,-0.687,-0.6869,-0.6852,-0.6807,-0.6792,-0.6778,-0.6748,-0.6738,-0.6709,-0.6698,-0.6666,-0.6648,-0.6628,-0.6602,-0.6598,-0.6618,-0.6579,-0.6577,-0.6589,-0.662,-0.6636,-0.664,-0.6601,-0.6601,-0.6602,-0.6624,0,-0.6949,-0.6922,-0.6888,-0.6872,-0.6855,-0.6817,-0.6805,-0.6777,-0.6753,-0.6735,-0.6707,-0.6686,-0.6663,-0.6651,-0.6646,-0.6616,-0.6624,-0.6614,-0.6591,-0.6591,-0.6603,-0.6643,-0.666,-0.6682,-0.6626,-0.6626,-0.6627,0,-0.6967,-0.6941,-0.6925,-0.6885,-0.6876,-0.6866,-0.6838,-0.682,-0.6789,-0.6771,-0.6751,-0.6723,-0.6708,-0.6688,-0.6667,-0.6662,-0.665,-0.6635,-0.6635,-0.6632,-0.6611,-0.6643,-0.6688,-0.6693,-0.663,-0.663,-0.6629,0,-0.7009,-0.6971,-0.6956,-0.6942,-0.6894,-0.6889,-0.6868,-0.6836,-0.6822,-0.6797,-0.6787,-0.676,-0.6746,-0.6727,-0.6693,-0.6681,-0.6677,-0.6654,-0.6664,-0.6665,-0.6665,-0.6666,-0.6711,-0.6655,-0.6655,-0.6655,-0.6655,0,-0.7034,-0.7026,-0.6975,-0.6967,-0.6957,-0.6918,-0.691,-0.6887,-0.6859,-0.6846,-0.6811,-0.68,-0.6755,-0.6739,-0.6713,-0.6701,-0.6694,-0.6681,-0.6674,-0.6685,-0.6687,-0.6677,-0.6676,-0.6656,-0.6656,-0.6656,-0.6656,0,-0.708,-0.7045,-0.7028,-0.6985,-0.6974,-0.6969,-0.6932,-0.6923,-0.6897,-0.6881,-0.6876,-0.6835,-0.6814,-0.6779,-0.6747,-0.673,-0.6724,-0.6712,-0.6735,-0.6731,-0.6744,-0.6744,-0.6785,-0.679,-0.6731,-0.6732,-0.6732,0,-0.7098,-0.7092,-0.7049,-0.7038,-0.7019,-0.7002,-0.6987,-0.6949,-0.6936,-0.6901,-0.6897,-0.6874,-0.6853,-0.6823,-0.6791,-0.6768,-0.6755,-0.6772,-0.6752,-0.6764,-0.6758,-0.676,-0.676,-0.6776,-0.6777,-0.6778,-0.6778,0,-0.7136,-0.712,-0.7101,-0.7076,-0.706,-0.7038,-0.7015,-0.7008,-0.6965,-0.6952,-0.6931,-0.6915,-0.6885,-0.6863,-0.6836,-0.6816,-0.6791,-0.6785,-0.6787,-0.6798,-0.6813,-0.6807,-0.675,-0.6784,-0.6784,-0.6783,-0.6783,-0.6783,-0.717,-0.7164,-0.7133,-0.7113,-0.7092,-0.7072,-0.7062,-0.7035,-0.7017,-0.699,-0.6969,-0.6951,-0.6922,-0.6883,-0.6864,-0.685,-0.6838,-0.6839,-0.684,-0.6841,-0.6847,-0.6814,-0.6845,-0.6844,-0.6844,-0.6844,-0.6844,0,-0.7208,-0.7187,-0.7169,-0.7139,-0.7124,-0.7101,-0.7075,-0.7064,-0.7049,-0.7024,-0.7005,-0.6983,-0.6962,-0.693,-0.6907,-0.6902,-0.689,-0.6898,-0.6898,-0.6895,-0.6857,-0.686,-0.6908,-0.6908,-0.6908,-0.6908,-0.6908,-0.6908,-0.7226,-0.7214,-0.7195,-0.7174,-0.7152,-0.7135,-0.7122,-0.7104,-0.7084,-0.7061,-0.7044,-0.7023,-0.6996,-0.6971,-0.6952,-0.6943,-0.6937,-0.6949,-0.6937,-0.6903,-0.6897,-0.6891,-0.6893,-0.6947,-0.6948,-0.6975,-0.6975,-0.6976]},{"header":{"parameterUnit":"m.s-1","parameterCategory":1,"la1":30.2991,"la2":30.254,"lo1":-89.0895,"lo2":-89.0444,"dy":0.0017,"dx":0.0017,"nx":28,"ny":28,"refTime":"2025-09-12T21:00:00:Z","depth":0,"parameterNumber":3,"parameterNumberName":"V-component_of_WINDS"},"data":[0,0,0,0,0,0,0,0,0,0,0,0,0,0,0,0,0,0,0,0,0,0,0,0,0,0,0,0,0,0,0,0,0,0,0,0,0,0,0,0,0,0,0,0,0,0,0,0,0,0,0,0,0,0,0,0,0,0,2.3598,2.3597,0,2.3564,2.3564,2.3563,2.3565,2.3566,2.3566,2.3567,2.3528,2.3526,2.3525,0,0,0,0,0,0,0,0,0,0,0,0,0,2.366,2.3659,2.3598,2.3597,2.3597,2.3564,2.3564,2.3563,2.3565,2.3566,2.3566,2.3567,2.3528,2.3526,2.3525,0,0,0,0,0,0,0,0,0,0,0,0,0,2.363,2.3658,2.3598,2.3594,2.3593,2.3564,2.3564,2.3563,2.3565,2.3566,2.3567,2.3567,2.3529,2.3527,2.3524,2.3495,0,0,2.3517,2.3516,0,0,0,0,0,0,0,0,2.3632,2.3628,2.3595,2.3594,2.3594,2.357,2.3571,2.354,2.3565,2.3576,2.3567,2.3568,2.3541,2.3538,2.3529,2.3493,2.3492,2.3517,2.3516,2.3515,2.3514,0,0,0,0,0,0,0,2.3634,2.3629,2.3584,2.3595,2.3594,2.3593,2.3589,2.3565,2.3554,2.3575,2.3575,2.3571,2.354,2.3532,2.3528,2.3491,2.3517,2.3515,2.3514,2.3513,2.3427,2.3426,0,0,0,0,0,0,2.3637,2.3631,2.3585,2.3583,2.3615,2.3591,2.3587,2.3576,2.3555,2.3552,2.357,2.3571,2.3535,2.3531,2.3527,2.349,2.3515,2.3513,2.3511,2.3428,2.3427,2.3426,0,0,0,0,0,0,2.3639,2.3633,2.3587,2.3607,2.3601,2.3589,2.3577,2.3575,2.3567,2.3551,2.3549,2.3564,2.3536,2.353,2.3503,2.3488,2.3512,2.351,2.3429,2.3428,2.3426,2.3416,0,0,0,0,0,0,2.364,2.3634,2.3624,2.3607,2.36,2.3564,2.3576,2.3574,2.3563,2.3564,2.3544,2.3542,2.3536,2.3506,2.3501,2.3486,2.3508,2.343,2.3428,2.3427,2.3417,2.3414,2.3412,0,0,0,0,0,2.3643,2.3621,2.3623,2.3618,2.3587,2.3564,2.356,2.3554,2.3562,2.3551,2.3541,2.3542,2.3492,2.3503,2.3497,2.3481,2.3431,2.3429,2.3427,2.3419,2.3415,2.3412,0,0,0,0,0,0,2.3635,2.3619,2.3621,2.3594,2.358,2.3564,2.355,2.3551,2.3534,2.3535,2.3528,2.3523,2.3495,2.3486,2.35,2.3451,2.3462,2.3459,2.3458,2.3454,2.3451,2.3453,2.3506,0,0,0,0,0,2.3631,2.3615,2.3601,2.3578,2.3572,2.3562,2.3551,2.3549,2.3534,2.3527,2.3515,2.35,2.348,2.3467,2.3448,2.3417,2.3411,2.3403,2.34,2.3397,2.3394,2.3374,2.337,2.3419,2.3419,2.3419,0,0,2.3621,2.361,2.36,2.3577,2.3566,2.3547,2.3557,2.3537,2.3523,2.3524,2.3497,2.3488,2.3469,2.344,2.3426,2.3431,2.3379,2.3395,2.3393,2.3391,2.3372,2.3367,2.3363,2.3418,2.3418,2.3418,0,0,2.3593,2.3585,2.3564,2.3553,2.3537,2.353,2.3525,2.3509,2.3503,2.3477,2.3477,2.3459,2.3425,2.3412,2.34,2.3367,2.3367,2.3361,2.3345,2.3326,2.3322,2.3319,2.3304,2.33,2.3358,2.3358,2.3358,0,2.3583,2.3556,2.3553,2.3533,2.3521,2.3523,2.3501,2.349,2.3468,2.3459,2.3466,2.3423,2.3411,2.3377,2.3369,2.3361,2.3353,2.3362,2.3323,2.332,2.3316,2.3303,2.3298,2.3357,2.3357,2.3357,2.3357,0,2.3543,2.3524,2.3509,2.3489,2.3476,2.3455,2.3447,2.3434,2.3433,2.3425,2.3397,2.3382,2.336,2.3352,2.335,2.3317,2.332,2.3325,2.3336,2.3311,2.3298,2.3293,2.3356,2.3356,2.3356,2.3357,0,0,2.3508,2.3487,2.3481,2.3471,2.3453,2.3438,2.3416,2.3395,2.3383,2.3368,2.3348,2.332,2.3324,2.3311,2.3307,2.3291,2.3263,2.3298,2.3297,2.329,2.3223,2.3218,2.3212,2.3263,2.3262,2.3262,2.3224,0,2.3477,2.344,2.3436,2.3402,2.3384,2.3385,2.3366,2.3352,2.3344,2.3326,2.3317,2.3296,2.3305,2.3296,2.3281,2.327,2.3249,2.3273,2.3242,2.3241,2.3245,2.3205,2.32,2.3165,2.3219,2.3218,2.3217,0,2.3435,2.3419,2.3384,2.3367,2.3359,2.3342,2.3322,2.3306,2.3289,2.3284,2.327,2.3268,2.3244,2.3257,2.3222,2.3238,2.3226,2.3218,2.3217,2.3212,2.3226,2.3197,2.3154,2.3147,2.321,2.321,2.3211,0,2.3411,2.3381,2.3355,2.3347,2.3328,2.3315,2.3306,2.3291,2.3278,2.326,2.3251,2.323,2.3218,2.3201,2.3193,2.3204,2.3157,2.317,2.3151,2.3151,2.3139,2.3139,2.3091,2.3135,2.3135,2.3135,2.3135,0,2.3375,2.3353,2.3344,2.3328,2.3302,2.3298,2.3272,2.3263,2.3249,2.323,2.323,2.3212,2.3203,2.3183,2.3177,2.3147,2.3142,2.3136,2.3134,2.3135,2.3135,2.3125,2.3126,2.3134,2.3134,2.3134,2.3135,0,2.3343,2.3337,2.3308,2.3292,2.3288,2.3269,2.3255,2.3238,2.3231,2.3207,2.3201,2.3189,2.3165,2.3156,2.3127,2.3122,2.3087,2.3089,2.3093,2.3092,2.3072,2.3073,2.3012,2.3003,2.3056,2.3056,2.3055,0,2.3319,2.3302,2.3284,2.3272,2.3263,2.3244,2.3231,2.3225,2.3212,2.3191,2.3176,2.3153,2.3134,2.3095,2.3083,2.306,2.3059,2.304,2.3055,2.3056,2.3056,2.3056,2.3053,2.3036,2.3035,2.3035,2.3034,0,2.3277,2.3275,2.3257,2.3237,2.3222,2.3206,2.3191,2.3181,2.3173,2.3157,2.3133,2.3119,2.3089,2.3065,2.3041,2.303,2.303,2.303,2.3024,2.3023,2.3025,2.3021,2.3082,2.3031,2.3031,2.3031,2.3032,2.3032,2.3247,2.3231,2.3216,2.3195,2.3183,2.3169,2.3152,2.3143,2.3124,2.31,2.3098,2.3072,2.3054,2.3022,2.301,2.2988,2.2993,2.2985,2.2982,2.2979,2.2977,2.3031,2.2984,2.2984,2.2984,2.2985,2.2985,0,2.3202,2.3193,2.3174,2.3153,2.3136,2.314,2.3123,2.3108,2.3086,2.307,2.3051,2.3023,2.2999,2.2985,2.2961,2.2946,2.2945,2.294,2.2939,2.2936,2.2975,2.2982,2.2941,2.2941,2.2941,2.2941,2.2941,2.2941,2.3177,2.315,2.3146,2.3112,2.3102,2.3077,2.3067,2.3052,2.304,2.3008,2.2989,2.2981,2.2965,2.294,2.2918,2.2914,2.2904,2.2897,2.2893,2.2929,2.2934,2.2938,2.2944,2.2896,2.2896,2.2856,2.2856,2.2856]}]]